Time,TemperatureF,DewpointF,PressureIn,WindDirection,WindDirectionDegrees,WindSpeedMPH,WindSpeedGustMPH,Humidity,HourlyPrecipIn,Conditions,Clouds,dailyrainin,SoftwareType,DateUTC
2013-01-03 00:01:00,50.7,4.8,29.95,NNW,337,11.9,-999.0,15,-99.99,,,0.00,Acu-Link.com,2013-01-03 07:01:00,
2013-01-03 05:22:00,49.1,6.2,29.93,NW,315,16.1,-999.0,17,-99.99,,,0.00,Acu-Link.com,2013-01-03 12:22:00,
2013-01-03 06:10:00,46.2,7.4,29.94,NW,315,17.7,-999.0,20,-99.99,,,0.00,Acu-Link.com,2013-01-03 13:10:00,
2013-01-03 07:03:00,48.4,8.1,29.96,NW,315,16.1,-999.0,19,-99.99,,,0.00,Acu-Link.com,2013-01-03 14:03:00,
2013-01-03 07:18:00,47.8,8.7,29.98,NW,315,16.6,-999.0,20,-99.99,,,0.00,Acu-Link.com,2013-01-03 14:18:00,
2013-01-03 07:35:00,47.8,9.8,29.98,NW,315,17.7,-999.0,21,-99.99,,,0.00,Acu-Link.com,2013-01-03 14:35:00,
2013-01-03 07:55:00,47.7,9.7,29.98,NNW,337,20.1,-999.0,21,-99.99,,,0.00,Acu-Link.com,2013-01-03 14:55:00,
2013-01-03 10:23:00,55.9,0.2,30.05,NW,315,18.6,-999.0,10,-99.99,,,0.00,Acu-Link.com,2013-01-03 17:23:00,
2013-01-03 10:38:00,56.5,0.6,30.06,NNW,337,23.7,-999.0,10,-99.99,,,0.00,Acu-Link.com,2013-01-03 17:38:00,
2013-01-03 10:53:00,55.9,-2.0,30.06,NNW,337,21.7,-999.0,9,-99.99,,,0.00,Acu-Link.com,2013-01-03 17:53:00,
2013-01-03 11:08:00,57.4,-3.4,30.06,WNW,292,17.0,-999.0,8,-99.99,,,0.00,Acu-Link.com,2013-01-03 18:08:00,
2013-01-03 11:23:00,58.6,-5.2,30.06,NNW,337,14.5,-999.0,7,-99.99,,,0.00,Acu-Link.com,2013-01-03 18:23:00,
2013-01-03 11:38:00,57.0,-6.4,30.05,NNW,337,18.1,-999.0,7,-99.99,,,0.00,Acu-Link.com,2013-01-03 18:38:00,
2013-01-03 11:54:00,61.9,-19.8,30.04,NNW,337,16.6,-999.0,3,-99.99,,,0.00,Acu-Link.com,2013-01-03 18:54:00,
2013-01-03 12:09:00,61.2,60.9,30.04,NNW,337,15.0,-999.0,99,-99.99,,,0.00,Acu-Link.com,2013-01-03 19:09:00,
2013-01-03 19:20:00,55.9,-31.3,30.04,NNW,337,8.9,-999.0,2,-99.99,,,0.00,Acu-Link.com,2013-01-04 02:20:00,
2013-01-03 19:35:00,54.5,-24.8,30.04,NNW,337,9.4,-999.0,3,-99.99,,,0.00,Acu-Link.com,2013-01-04 02:35:00,
2013-01-03 19:51:00,53.8,-19.9,30.04,NW,315,9.8,-999.0,4,-99.99,,,0.00,Acu-Link.com,2013-01-04 02:51:00,
2013-01-03 20:06:00,53.4,-20.1,30.04,NNW,337,8.9,-999.0,4,-99.99,,,0.00,Acu-Link.com,2013-01-04 03:06:00,
2013-01-03 20:21:00,53.2,-20.2,30.04,NNW,337,7.8,-999.0,4,-99.99,,,0.00,Acu-Link.com,2013-01-04 03:21:00,
2013-01-03 22:21:00,52.0,-21.1,30.07,NW,315,11.4,-999.0,4,-99.99,,,0.00,Acu-Link.com,2013-01-04 05:21:00,